Raton, NM

10:09 PM MDT on June 28, 2017 (GMT -0600)
Raton Municipal-Crews

Weather History for KRTN - October, 2011

Change the Weather History Date:

Wednesday, October 19, 2011

  Actual Average (KTAD) Record (KTAD)
Temperature  
Mean Temperature 44 °F -  
Max Temperature 62 °F 66 °F 87 °F (2003)
Min Temperature 26 °F 35 °F 17 °F (1976)
Degree Days  
Heating Degree Days 21    
Moisture  
Dew Point 21 °F    
Average Humidity 45    
Maximum Humidity 71    
Minimum Humidity 22    
Precipitation  
Precipitation 0.00 in - - ()
Sea Level Pressure  
Sea Level Pressure 30.12 in    
Wind  
Wind Speed 5 mph (SSW)    
Max Wind Speed 12 mph    
Max Gust Speed -    
Visibility 10 miles    
Events      
Averages and records for this station are not official NWS values.
T = Trace of Precipitation, MM = Missing Value Source: NWS Daily Summary

Daily Weather History Graph

Daily Weather History Graph

Search for Another Location

Airport or City:

Trip Planner

Search our weather history database for the weather conditions in past years. The results will help you decide how hot, cold, wet, or windy it might be!

Date:

Astronomy

Oct. 19, 2011 Rise Set
Actual Time 7:08 AM MDT 6:16 PM MDT
Civil Twilight 6:42 AM MDT 6:42 PM MDT
Nautical Twilight 6:12 AM MDT 7:12 PM MDT
Astronomical Twilight 5:42 AM MDT 7:42 PM MDT
Moon No Moon Rise 1:37 PM MDT (10/19)
Length of Visible Light 11h 59m
Length of Day
11h 07m
Waning Gibbous, 54% of the Moon is Illuminated
Oct 19
Waning Gibbous
Oct 19
Last Quarter
Oct 26
New
Nov 2
First Quarter
Nov 10
Full

Hourly Weather History & Observations

Time (MDT) Temp. Windchill Dew Point Humidity Pressure Visibility Wind Dir Wind Speed Gust Speed Precip Events Conditions
12:53 AM 30.9 °F - 19.9 °F 64% 30.23 in 10.0 mi Calm Calm - N/A   Clear
1:53 AM 33.1 °F 28.7 °F 19.9 °F 59% 30.20 in 10.0 mi NE 4.6 mph - N/A   Clear
2:53 AM 28.9 °F 23.9 °F 19.0 °F 67% 30.22 in 10.0 mi NE 4.6 mph - N/A   Clear
3:53 AM 30.0 °F 24.1 °F 19.0 °F 64% 30.20 in 10.0 mi East 5.8 mph - N/A   Clear
4:53 AM 28.0 °F - 18.0 °F 66% 30.21 in 10.0 mi Calm Calm - N/A   Clear
5:53 AM 26.1 °F 17.6 °F 18.0 °F 71% 30.24 in 10.0 mi ENE 8.1 mph - N/A   Clear
6:53 AM 26.1 °F 17.6 °F 18.0 °F 71% 30.26 in 10.0 mi NE 8.1 mph - N/A   Clear
7:53 AM 30.9 °F 24.3 °F 19.9 °F 64% 30.26 in 10.0 mi NE 6.9 mph - N/A   Clear
8:53 AM 41.0 °F 36.4 °F 21.9 °F 47% 30.24 in 10.0 mi NE 6.9 mph - N/A   Clear
9:53 AM 48.0 °F - 21.9 °F 36% 30.22 in 10.0 mi Calm Calm - N/A   Clear
10:53 AM 51.1 °F - 24.1 °F 35% 30.19 in 10.0 mi SW 11.5 mph - N/A   Clear
11:53 AM 53.1 °F - 23.0 °F 31% 30.15 in 10.0 mi SSW 8.1 mph - N/A   Clear
12:53 PM 55.0 °F - 25.0 °F 31% 30.13 in 10.0 mi Variable 6.9 mph - N/A   Clear
1:53 PM 57.9 °F - 24.1 °F 27% 30.06 in 10.0 mi South 5.8 mph - N/A   Clear
2:53 PM 59.0 °F - 23.0 °F 25% 30.05 in 10.0 mi South 4.6 mph - N/A   Clear
3:53 PM 62.1 °F - 23.0 °F 22% 30.01 in 10.0 mi SW 8.1 mph - N/A   Clear
4:53 PM 61.0 °F - 23.0 °F 23% 30.00 in 10.0 mi South 6.9 mph - N/A   Clear
5:53 PM 57.0 °F - 21.9 °F 26% 30.01 in 10.0 mi South 6.9 mph - N/A   Clear
6:53 PM 50.0 °F - 19.9 °F 31% 30.05 in 10.0 mi SSW 5.8 mph - N/A   Clear
7:53 PM 45.0 °F 42.6 °F 19.9 °F 37% 30.05 in 10.0 mi WSW 4.6 mph - N/A   Clear
8:53 PM 45.0 °F 42.6 °F 21.0 °F 39% 30.02 in 10.0 mi WSW 4.6 mph - N/A   Clear
9:53 PM 43.0 °F 41.3 °F 21.9 °F 43% 30.00 in 10.0 mi West 3.5 mph - N/A   Clear
10:53 PM 39.0 °F - 21.9 °F 50% 29.99 in 10.0 mi Calm Calm - N/A   Clear
11:53 PM 37.9 °F 32.7 °F 23.0 °F 55% 29.96 in 10.0 mi NW 6.9 mph - N/A   Clear